This demonstration page uses our WeatherBlox Daily Observations layout. Learn more.

Hourly Observations for October 16, 2020

Temp ( °F °C ) Dew Point ( °F °C ) Humidity (%) Winds ( mph kmh ) Pressure ( in mb ) Visibility ( mi km ) Precip ( " mm )
12:15 am 00:15 Mostly Cloudy 59 15 59 15 100 100 NNW 6 9 29.97 1015 10 16.0934 0 0
12:35 am 00:35 Cloudy 59 15 59 15 100 100 Calm 29.97 1015 10 16.0934 0 0
12:55 am 00:55 Cloudy 61 16 61 16 100 100 SW 5 7 29.97 1015 10 16.0934 0 0
1:15 am 01:15 Cloudy 61 16 61 16 100 100 W 5 7 29.98 1015 10 16.0934 0 0
1:35 am 01:35 Cloudy 63 17 55 13 77 77 N 12 19 30 1016 10 16.0934 0 0
2:55 am 02:55 Cloudy 61 16 46 8 59 59 N 7 11 30.03 1017 10 16.0934 0 0
3:15 am 03:15 Cloudy 59 15 46 8 63 63 N 9 15 30.03 1017 10 16.0934 0 0
3:35 am 03:35 Cloudy 59 15 46 8 63 63 N 9 15 30.03 1017 10 16.0934 0 0
3:55 am 03:55 Cloudy 59 15 50 10 72 72 N 8 13 30.04 1017 10 16.0934 0 0
4:15 am 04:15 Cloudy 57 14 50 10 77 77 N 6 9 30.04 1017 10 16.0934 0 0
4:35 am 04:35 Cloudy 57 14 50 10 77 77 N 9 15 30.05 1018 10 16.0934 0 0
4:55 am 04:55 Cloudy 57 14 50 10 77 77 N 8 13 30.06 1018 10 16.0934 0 0
5:15 am 05:15 Cloudy 57 14 48 9 72 72 N 12 19 30.06 1018 10 16.0934 0 0
5:35 am 05:35 Cloudy 57 14 46 8 67 67 N 7 11 30.07 1018 10 16.0934 0 0
5:55 am 05:55 Cloudy 57 14 48 9 72 72 N 14 22 30.08 1019 10 16.0934 0 0
6:15 am 06:15 Cloudy 55 13 48 9 77 77 N 9 15 30.09 1019 10 16.0934 0 0
6:35 am 06:35 Cloudy 55 13 48 9 77 77 N 9 15 30.09 1019 10 16.0934 0 0
6:55 am 06:55 Cloudy 55 13 48 9 77 77 N 9 15 30.1 1019 10 16.0934 0 0
7:15 am 07:15 Cloudy 55 13 48 9 77 77 NNE 8 13 30.1 1019 10 16.0934 0 0
7:35 am 07:35 Cloudy 55 13 48 9 77 77 NNE 12 19 30.1 1019 10 16.0934 0 0
7:55 am 07:55 Cloudy 54 12 46 8 77 77 N 8 13 30.11 1020 10 16.0934 0 0
8:15 am 08:15 Cloudy 54 12 46 8 77 77 NNE 7 11 30.13 1020 10 16.0934 0 0
8:35 am 08:35 Cloudy 54 12 46 8 77 77 NNE 7 11 30.13 1020 10 16.0934 0 0
8:55 am 08:55 Cloudy 54 12 46 8 77 77 NNE 6 9 30.14 1021 10 16.0934 0 0
9:15 am 09:15 Cloudy 55 13 46 8 72 72 NNE 7 11 30.14 1021 10 16.0934 0 0
9:35 am 09:35 Cloudy 55 13 46 8 72 72 NNE 6 9 30.15 1021 10 16.0934 0 0
9:55 am 09:55 Cloudy 55 13 46 8 72 72 NE 9 15 30.15 1021 10 16.0934 0 0
10:15 am 10:15 Cloudy 55 13 46 8 72 72 NNE 7 11 30.14 1021 10 16.0934 0 0
10:35 am 10:35 Cloudy 55 13 46 8 72 72 NNE 9 15 30.15 1021 10 16.0934 0 0
10:55 am 10:55 Cloudy 55 13 46 8 72 72 N 8 13 30.15 1021 10 16.0934 0 0
11:15 am 11:15 Cloudy 55 13 46 8 72 72 NNE 10 17 30.16 1021 10 16.0934 0 0
11:35 am 11:35 Cloudy 57 14 46 8 67 67 N 8 13 30.17 1022 10 16.0934 0 0
11:55 am 11:55 Cloudy 57 14 46 8 67 67 N 13 20 30.16 1021 10 16.0934 0 0
12:15 pm 12:15 Cloudy 57 14 46 8 67 67 NNW 13 20 30.17 1022 10 16.0934 0 0
12:35 pm 12:35 Cloudy 57 14 46 8 67 67 N 13 20 30.15 1021 10 16.0934 0 0
12:55 pm 12:55 Cloudy 57 14 45 7 63 63 N 7 11 30.16 1021 10 16.0934 0 0
1:15 pm 13:15 Cloudy 57 14 46 8 67 67 N 8 13 30.16 1021 10 16.0934 0 0
1:35 pm 13:35 Cloudy 59 15 45 7 59 59 N 10 17 30.16 1021 10 16.0934 0 0
1:55 pm 13:55 Cloudy 59 15 45 7 59 59 N 8 13 30.16 1021 10 16.0934 0 0
2:15 pm 14:15 Cloudy 59 15 45 7 59 59 N 10 17 30.15 1021 10 16.0934 0 0
2:35 pm 14:35 Mostly Cloudy 61 16 43 6 52 52 NNW 9 15 30.15 1021 10 16.0934 0 0
2:55 pm 14:55 Partly Cloudy 59 15 41 5 51 51 NNW 14 22 30.14 1021 10 16.0934 0 0
3:15 pm 15:15 Cloudy 57 14 37 3 48 48 NNW 10 17 30.15 1021 10 16.0934 0 0
3:35 pm 15:35 Cloudy 55 13 39 4 55 55 NW 9 15 30.15 1021 10 16.0934 0 0
3:55 pm 15:55 Cloudy 55 13 41 5 59 59 NNW 12 19 30.15 1021 10 16.0934 0 0
4:15 pm 16:15 Cloudy 55 13 43 6 63 63 N 10 17 30.14 1021 10 16.0934 0 0
4:35 pm 16:35 Cloudy 55 13 43 6 63 63 N 8 13 30.15 1021 10 16.0934 0 0
4:55 pm 16:55 Cloudy 54 12 43 6 67 67 N 12 19 30.16 1021 10 16.0934 0 0
5:15 pm 17:15 Cloudy 54 12 43 6 67 67 N 8 13 30.15 1021 10 16.0934 0 0
5:35 pm 17:35 Cloudy 54 12 43 6 67 67 N 6 9 30.17 1022 10 16.0934 0 0
5:55 pm 17:55 Cloudy 54 12 43 6 67 67 NNE 7 11 30.15 1021 10 16.0934 0 0
6:15 pm 18:15 Cloudy 54 12 43 6 67 67 NNE 8 13 30.16 1021 10 16.0934 0 0
6:35 pm 18:35 Cloudy 54 12 43 6 67 67 NNE 7 11 30.16 1021 10 16.0934 0 0
7:15 pm 19:15 Cloudy 54 12 43 6 67 67 N 5 7 30.17 1022 10 16.0934 0 0
7:35 pm 19:35 Cloudy 52 11 43 6 72 72 NNE 5 7 30.17 1022 10 16.0934 0 0
7:55 pm 19:55 Cloudy 52 11 43 6 72 72 NNE 6 9 30.18 1022 10 16.0934 0 0
8:15 pm 20:15 Mostly Cloudy 52 11 43 6 72 72 NNE 3 6 30.18 1022 10 16.0934 0 0
8:35 pm 20:35 Mostly Cloudy 52 11 43 6 72 72 NNE 3 6 30.18 1022 10 16.0934 0 0
8:55 pm 20:55 Partly Cloudy 52 11 43 6 72 72 NNE 3 6 30.18 1022 10 16.0934 0 0
9:15 pm 21:15 Partly Cloudy 50 10 43 6 76 76 Calm 30.19 1022 10 16.0934 0 0
9:35 pm 21:35 Cloudy 46 8 45 7 93 93 Calm 30.2 1023 10 16.0934 0 0
9:55 pm 21:55 Partly Cloudy 46 8 45 7 93 93 Calm 30.22 1023 10 16.0934 0 0
10:15 pm 22:15 Clear 48 9 43 6 82 82 Calm 30.22 1023 10 16.0934 0 0
10:35 pm 22:35 Clear 46 8 43 6 87 87 Calm 30.22 1023 10 16.0934 0 0
10:55 pm 22:55 Clear 45 7 43 6 93 93 Calm 30.23 1024 10 16.0934 0 0
11:15 pm 23:15 Clear 43 6 43 6 100 100 Calm 30.22 1023 10 16.0934 0 0
11:35 pm 23:35 Clear 43 6 43 6 100 100 Calm 30.22 1023 10 16.0934 0 0
11:55 pm 23:55 Clear 43 6 43 6 100 100 NNW 5 7 30.22 1023 10 16.0934 0 0

Powered by AerisWeather